Change the Weather History Date:

Sunday, September 9, 2012

  Actual Average Record
Temperature  
Mean Temperature 86 °F -  
Max Temperature 97 °F 93 °F 102 °F (2005)
Min Temperature 75 °F 72 °F 68 °F (2001)
Cooling Degree Days 21    
Growing Degree Days 36 (Base 50)    
Moisture  
Dew Point 73 °F    
Average Humidity 72    
Maximum Humidity 89    
Minimum Humidity 39    
Precipitation  
Precipitation 0.00 in - - ()
Sea Level Pressure  
Sea Level Pressure 29.85 in    
Wind  
Wind Speed 5 mph ()    
Max Wind Speed 29 mph    
Max Gust Speed -    
Visibility 10.2 miles    
Events Rain , Thunderstorm    
Averages and records for this station are not official NWS values.
T = Trace of Precipitation, MM = Missing Value Source: Averaged Metar Reports

Daily Weather History Graph

Daily Weather History Graph

Search for Another Location

Airport or City:

Trip Planner

Search our weather history database for the weather conditions in past years. The results will help you decide how hot, cold, wet, or windy it might be!

Date:

Astronomy

Sep. 09, 2012 Rise Set
Actual Time 7:05 AM MDT 7:30 PM MDT
Civil Twilight 6:43 AM MDT 7:53 PM MDT
Nautical Twilight 6:16 AM MDT 8:20 PM MDT
Astronomical Twilight 5:49 AM MDT 8:47 PM MDT
Moon 1:06 AM MDT (9/9) 2:51 PM MDT (9/9)
Length of Visible Light 13h 10m
Length of Day
12h 24m
Last Quarter, 39% of the Moon is Illuminated
Sep 9
Last Quarter
Sep 15
New
Sep 22
First Quarter
Sep 29
Full
Oct 8
Last Quarter

Hourly Weather History & Observations

Time (MDT) Temp. Heat Index Dew Point Humidity Pressure Visibility Wind Dir Wind Speed Gust Speed Precip Events Conditions
2:50 AM 82 °F - 75 °F 75% 29.83 in 2 mi South 6.7 mph - -   Partly Cloudy
5:41 AM 78.8 °F - 73.4 °F 83% 29.88 in 10.0 mi WSW 4.6 mph - N/A   Clear
5:50 AM 81 °F - 75 °F 77% 29.85 in 2 mi SW 6.7 mph - -  
6:48 AM 77.0 °F - 73.4 °F 89% 29.82 in 10.0 mi East 5.8 mph - N/A   Partly Cloudy
7:45 AM 78.8 °F - 73.4 °F 83% 29.84 in 10.0 mi SSE 4.6 mph - N/A   Partly Cloudy
8:40 AM 86 °F - 73 °F 58% 29.87 in 16 mi East 2.2 mph - -  
8:42 AM 82.4 °F 88.2 °F 73.4 °F 74% 29.91 in 10.0 mi South 3.5 mph - N/A   Partly Cloudy
9:47 AM 87.8 °F 91.4 °F 68.0 °F 52% 29.85 in 10.0 mi Calm Calm - N/A   Clear
10:47 AM 89.6 °F 94.7 °F 69.8 °F 52% 29.87 in 12.0 mi North 5.8 mph - N/A   Scattered Clouds
11:42 AM 89.6 °F 98.2 °F 73.4 °F 59% 29.93 in 12.0 mi North 10.4 mph - N/A   Scattered Clouds
11:50 AM 92 °F - 75 °F 50% 29.87 in 19 mi WNW 6.7 mph - -   Mostly Cloudy
12:51 PM 91.4 °F 100.1 °F 73.4 °F 55% 29.85 in 12.0 mi NNW 8.1 mph - N/A   Scattered Clouds
1:52 PM 91.4 °F 100.1 °F 73.4 °F 55% 29.84 in 12.0 mi North 9.2 mph - N/A   Scattered Clouds
2:47 PM 89.6 °F 99.8 °F 75.2 °F 62% 29.86 in 12.0 mi NNW 8.1 mph - N/A   Scattered Clouds
2:50 PM 98 °F - 75 °F 39% 29.81 in 19 mi NW 8.9 mph - -   Scattered Clouds
3:09 PM 89.6 °F 99.8 °F 75.2 °F 62% 29.81 in 12.0 mi NNW 12.7 mph - N/A Thunderstorm Thunderstorm
3:25 PM 80.6 °F 83.9 °F 69.8 °F 70% 29.80 in 0.5 mi South 28.8 mph - N/A Rain , Thunderstorm Heavy Thunderstorms and Rain
3:57 PM 77.0 °F - 69.8 °F 78% 29.83 in 10.0 mi West 16.1 mph - N/A Rain , Thunderstorm Light Thunderstorms and Rain
4:33 PM 78.8 °F - 71.6 °F 78% 29.86 in 1.0 mi South 9.2 mph - N/A Rain , Thunderstorm Thunderstorms and Rain
4:51 PM 75.2 °F - 71.6 °F 89% 29.82 in 10.0 mi SW 5.8 mph - N/A Rain Light Rain
5:06 PM 75.2 °F - 71.6 °F 89% 29.83 in 12.0 mi SSE 5.8 mph - N/A   Mostly Cloudy
5:44 PM 77.0 °F - 71.6 °F 83% 29.87 in 12.0 mi Calm Calm - N/A   Mostly Cloudy
5:50 PM 82 °F - 74 °F 72% 29.81 in 19 mi South 2.2 mph - -   Partly Cloudy
6:46 PM 80.6 °F 85.4 °F 73.4 °F 79% 29.82 in 12.0 mi Calm Calm - N/A   Mostly Cloudy
7:41 PM 82.4 °F 89.5 °F 75.2 °F 79% 29.83 in 12.0 mi Calm Calm - N/A   Mostly Cloudy
8:40 PM 80.6 °F 86.2 °F 75.2 °F 84% 29.90 in 12.0 mi Calm Calm - N/A   Mostly Cloudy
8:50 PM 83 °F - 76 °F 73% 29.85 in 2 mi South 2.2 mph - -  
9:45 PM 78.8 °F - 75.2 °F 89% 29.88 in 10.0 mi Calm Calm - N/A   Scattered Clouds
10:40 PM 78.8 °F - 75.2 °F 89% 29.90 in 10.0 mi Calm Calm - N/A   Scattered Clouds
11:44 PM 83 °F - 77 °F 78% 29.87 in 2 mi Calm Calm - -   Scattered Clouds